[[{"header":{"parameterUnit":"m.s-1","parameterCategory":1,"la1":30.2991,"la2":30.254,"lo1":-89.0895,"lo2":-89.0444,"dy":0.0017,"dx":0.0017,"nx":28,"ny":28,"refTime":"2024-03-05T09:00:00:Z","depth":0,"parameterNumber":2,"parameterNumberName":"U-component_of_WINDS"},"data":[0,0,0,0,0,0,0,0,0,0,0,0,0,0,0,0,0,0,0,0,0,0,0,0,0,0,0,0,0,0,0,0,0,0,0,0,0,0,0,0,0,0,0,0,0,0,0,0,0,0,0,0,0,0,0,0,0,0,0.0237,0.0237,0,0.0231,0.023,0.023,0.0202,0.0202,0.0201,0.02,0.0194,0.0195,0.0195,0,0,0,0,0,0,0,0,0,0,0,0,0,0.0225,0.0225,0.0237,0.0237,0.0237,0.0231,0.023,0.023,0.0202,0.0202,0.0201,0.02,0.0194,0.0195,0.0195,0,0,0,0,0,0,0,0,0,0,0,0,0,0.0226,0.0225,0.0237,0.0222,0.022,0.0231,0.023,0.023,0.0203,0.0202,0.0201,0.02,0.0194,0.0195,0.0195,0.0219,0,0,0.0197,0.0198,0,0,0,0,0,0,0,0,0.0225,0.0226,0.0224,0.0223,0.0221,0.0216,0.0224,0.0227,0.0203,0.0209,0.02,0.0199,0.0202,0.0202,0.0203,0.0219,0.0219,0.0197,0.0198,0.0198,0.0198,0,0,0,0,0,0,0,0.0225,0.0226,0.0234,0.0224,0.0222,0.0216,0.0215,0.0224,0.0211,0.0209,0.0207,0.0206,0.0201,0.0203,0.0203,0.0219,0.0197,0.0198,0.0198,0.0199,0.0254,0.0255,0,0,0,0,0,0,0.0227,0.0226,0.0234,0.0234,0.0221,0.0217,0.0216,0.0219,0.0211,0.0209,0.0207,0.0205,0.0202,0.0202,0.0203,0.0231,0.0198,0.0199,0.0199,0.0253,0.0255,0.0256,0,0,0,0,0,0,0.0227,0.0228,0.0235,0.023,0.023,0.0218,0.0222,0.0219,0.022,0.021,0.0208,0.0211,0.0201,0.0202,0.0215,0.023,0.0199,0.02,0.0252,0.0254,0.0255,0.0287,0,0,0,0,0,0,0.0227,0.0229,0.0237,0.023,0.023,0.0247,0.0223,0.022,0.0222,0.0219,0.0213,0.0211,0.0201,0.0215,0.0216,0.023,0.02,0.0251,0.0253,0.0255,0.0284,0.0289,0.0294,0,0,0,0,0,0.0227,0.0246,0.0238,0.0239,0.0241,0.0248,0.0248,0.0236,0.0223,0.0232,0.0225,0.0211,0.0228,0.0216,0.0218,0.0233,0.025,0.0252,0.0255,0.0282,0.0288,0.0293,0,0,0,0,0,0,0.0255,0.0245,0.0236,0.0253,0.0252,0.0244,0.0254,0.0243,0.0245,0.0242,0.0227,0.0226,0.0242,0.0238,0.0225,0.0256,0.0237,0.024,0.0257,0.0263,0.0267,0.0268,0.0201,0,0,0,0,0,0.0264,0.0271,0.0261,0.0278,0.0277,0.0266,0.0269,0.026,0.0258,0.0257,0.0251,0.025,0.0255,0.0259,0.0263,0.0284,0.0283,0.0295,0.0299,0.0303,0.0306,0.0318,0.0323,0.0264,0.0264,0.0264,0,0,0.0281,0.0276,0.0281,0.0283,0.0281,0.0289,0.0266,0.0275,0.028,0.0258,0.0271,0.0267,0.0265,0.0282,0.029,0.028,0.0322,0.0306,0.0309,0.031,0.0321,0.0326,0.0331,0.0265,0.0265,0.0265,0,0,0.0316,0.0313,0.0327,0.0326,0.0323,0.0315,0.0319,0.0313,0.0309,0.0322,0.0306,0.0312,0.0321,0.032,0.0321,0.0358,0.0345,0.0359,0.0383,0.0395,0.04,0.0404,0.0417,0.0422,0.0362,0.0362,0.0362,0,0.0338,0.0349,0.0336,0.0346,0.0348,0.0328,0.0342,0.0342,0.034,0.0342,0.0331,0.0343,0.034,0.0357,0.0366,0.0367,0.0371,0.036,0.04,0.0404,0.0407,0.042,0.0425,0.0364,0.0364,0.0364,0.0363,0,0.0376,0.0384,0.0396,0.0395,0.0398,0.0411,0.0399,0.0404,0.0395,0.0389,0.0402,0.0398,0.0401,0.0405,0.0396,0.0422,0.0416,0.0403,0.0383,0.0415,0.0427,0.0432,0.0367,0.0366,0.0365,0.0365,0,0,0.0429,0.0422,0.0426,0.0426,0.0422,0.0428,0.044,0.0443,0.0448,0.0448,0.0458,0.0466,0.0455,0.0456,0.0446,0.0456,0.0486,0.0442,0.0442,0.0451,0.0516,0.0526,0.0532,0.0478,0.0479,0.048,0.0516,0,0.0463,0.0483,0.0471,0.0493,0.05,0.0482,0.0493,0.0492,0.0486,0.0492,0.0486,0.0493,0.0477,0.0477,0.0487,0.0481,0.0499,0.0478,0.0487,0.0488,0.0489,0.0538,0.0548,0.0583,0.0521,0.0521,0.0522,0,0.0505,0.0508,0.053,0.0526,0.0528,0.0538,0.0541,0.0546,0.0545,0.0541,0.0542,0.0531,0.0542,0.0523,0.054,0.0525,0.0529,0.0527,0.0528,0.0528,0.0507,0.054,0.0594,0.0599,0.0529,0.0528,0.0528,0,0.0542,0.0551,0.0566,0.0566,0.0561,0.0568,0.0567,0.0565,0.0568,0.057,0.0572,0.0576,0.0578,0.0582,0.0572,0.0559,0.059,0.0569,0.0587,0.0587,0.0594,0.0594,0.0649,0.0596,0.0595,0.0595,0.0595,0,0.0582,0.0596,0.0582,0.0591,0.0607,0.0594,0.0611,0.0607,0.0605,0.0614,0.0598,0.0607,0.0593,0.06,0.0592,0.0607,0.0608,0.0605,0.0603,0.0607,0.0607,0.0609,0.0606,0.0597,0.0596,0.0596,0.0596,0,0.0625,0.0617,0.0632,0.0626,0.0625,0.0637,0.0632,0.0641,0.0635,0.0646,0.0648,0.0638,0.0646,0.0636,0.0643,0.0638,0.0658,0.0652,0.0659,0.0657,0.0675,0.0674,0.0734,0.0742,0.0683,0.0683,0.0684,0,0.0651,0.0662,0.0658,0.0663,0.0662,0.0669,0.0673,0.0661,0.0665,0.0665,0.0674,0.068,0.0685,0.0698,0.0692,0.0697,0.0691,0.0712,0.0692,0.0696,0.0692,0.0692,0.0693,0.0716,0.0717,0.0717,0.0718,0,0.0698,0.0694,0.0699,0.0704,0.0708,0.0711,0.0713,0.0717,0.0705,0.0711,0.0719,0.0722,0.0729,0.0736,0.074,0.0738,0.0726,0.0724,0.0729,0.0733,0.0736,0.0735,0.0671,0.0723,0.0722,0.0722,0.0722,0.0721,0.0734,0.0743,0.0742,0.0749,0.0749,0.0752,0.076,0.0755,0.0761,0.0766,0.0759,0.0769,0.0768,0.0772,0.0772,0.078,0.0771,0.0777,0.0779,0.0781,0.0784,0.0735,0.0781,0.078,0.078,0.078,0.078,0,0.0781,0.078,0.0786,0.079,0.0795,0.0784,0.0785,0.0791,0.08,0.0801,0.0806,0.0815,0.0822,0.0817,0.0822,0.083,0.0825,0.0832,0.0831,0.0831,0.0791,0.0787,0.0836,0.0836,0.0836,0.0836,0.0836,0.0836,0.0806,0.0821,0.0817,0.0832,0.0831,0.0841,0.0843,0.0845,0.0846,0.0857,0.0863,0.0859,0.0858,0.0864,0.087,0.0868,0.0871,0.088,0.0877,0.0839,0.0834,0.0829,0.0825,0.0881,0.0881,0.0916,0.0917,0.0917]},{"header":{"parameterUnit":"m.s-1","parameterCategory":1,"la1":30.2991,"la2":30.254,"lo1":-89.0895,"lo2":-89.0444,"dy":0.0017,"dx":0.0017,"nx":28,"ny":28,"refTime":"2024-03-05T09:00:00:Z","depth":0,"parameterNumber":3,"parameterNumberName":"V-component_of_WINDS"},"data":[0,0,0,0,0,0,0,0,0,0,0,0,0,0,0,0,0,0,0,0,0,0,0,0,0,0,0,0,0,0,0,0,0,0,0,0,0,0,0,0,0,0,0,0,0,0,0,0,0,0,0,0,0,0,0,0,0,0,-0.8028,-0.8029,0,-0.8115,-0.8116,-0.8117,-0.8167,-0.8167,-0.8167,-0.8167,-0.8256,-0.8259,-0.8261,0,0,0,0,0,0,0,0,0,0,0,0,0,-0.7904,-0.7906,-0.8028,-0.8029,-0.803,-0.8115,-0.8116,-0.8117,-0.8166,-0.8167,-0.8167,-0.8167,-0.8256,-0.8258,-0.8261,0,0,0,0,0,0,0,0,0,0,0,0,0,-0.7971,-0.7907,-0.8027,-0.8065,-0.8069,-0.8115,-0.8116,-0.8118,-0.8166,-0.8167,-0.8167,-0.8167,-0.8255,-0.8258,-0.8261,-0.8277,0,0,-0.8271,-0.8273,0,0,0,0,0,0,0,0,-0.7967,-0.7976,-0.8058,-0.8062,-0.8067,-0.813,-0.8105,-0.8171,-0.8166,-0.8129,-0.8167,-0.8167,-0.8214,-0.8221,-0.8237,-0.8281,-0.8285,-0.8272,-0.8274,-0.8275,-0.8276,0,0,0,0,0,0,0,-0.7963,-0.7972,-0.8062,-0.8059,-0.8065,-0.8077,-0.8087,-0.8118,-0.8169,-0.8133,-0.8136,-0.8146,-0.8217,-0.8233,-0.8239,-0.8286,-0.8272,-0.8275,-0.8277,-0.8278,-0.8349,-0.8349,0,0,0,0,0,0,-0.7952,-0.7968,-0.806,-0.8065,-0.8017,-0.8079,-0.809,-0.811,-0.8169,-0.8178,-0.8146,-0.8148,-0.8228,-0.8235,-0.8242,-0.8266,-0.8275,-0.8278,-0.828,-0.835,-0.8349,-0.8349,0,0,0,0,0,0,-0.7949,-0.796,-0.8056,-0.8018,-0.8031,-0.8081,-0.8103,-0.8111,-0.8128,-0.8179,-0.8188,-0.8153,-0.8228,-0.8238,-0.8268,-0.8269,-0.828,-0.8283,-0.835,-0.8349,-0.8349,-0.8311,0,0,0,0,0,0,-0.7945,-0.7958,-0.7964,-0.8017,-0.8033,-0.808,-0.8103,-0.8113,-0.8134,-0.8137,-0.8189,-0.8197,-0.8229,-0.8263,-0.8272,-0.8274,-0.8285,-0.835,-0.835,-0.8349,-0.8313,-0.831,-0.8307,0,0,0,0,0,-0.7941,-0.795,-0.7965,-0.7975,-0.8041,-0.808,-0.8089,-0.8125,-0.8133,-0.814,-0.8173,-0.8196,-0.8268,-0.8266,-0.8276,-0.8279,-0.835,-0.835,-0.8349,-0.8314,-0.831,-0.8307,0,0,0,0,0,0,-0.7896,-0.7958,-0.7974,-0.8001,-0.8035,-0.8088,-0.8098,-0.812,-0.8152,-0.8154,-0.8198,-0.8209,-0.8235,-0.8261,-0.8257,-0.8298,-0.8311,-0.8313,-0.8281,-0.8278,-0.8275,-0.8269,-0.8288,0,0,0,0,0,-0.7889,-0.7915,-0.7968,-0.7986,-0.8002,-0.8047,-0.8065,-0.809,-0.8127,-0.8141,-0.8177,-0.8212,-0.8242,-0.8262,-0.8293,-0.8317,-0.8329,-0.8324,-0.8321,-0.8319,-0.832,-0.8336,-0.8334,-0.8349,-0.8349,-0.8349,0,0,-0.7875,-0.7912,-0.7925,-0.7978,-0.8007,-0.8033,-0.8059,-0.8085,-0.8105,-0.8146,-0.8177,-0.8204,-0.8246,-0.8273,-0.8287,-0.8295,-0.8319,-0.8319,-0.8316,-0.8319,-0.8335,-0.8334,-0.8332,-0.8348,-0.8348,-0.8348,0,0,-0.7863,-0.7893,-0.7912,-0.7941,-0.7985,-0.8016,-0.802,-0.807,-0.809,-0.8122,-0.8153,-0.8178,-0.823,-0.8259,-0.828,-0.828,-0.8303,-0.8289,-0.8276,-0.829,-0.8289,-0.8288,-0.8289,-0.8289,-0.829,-0.829,-0.829,0,-0.784,-0.7881,-0.7919,-0.7944,-0.7967,-0.8005,-0.8025,-0.8051,-0.8103,-0.8118,-0.8126,-0.8193,-0.8223,-0.8259,-0.8259,-0.8275,-0.8282,-0.8284,-0.8286,-0.8286,-0.8286,-0.8287,-0.8287,-0.8288,-0.8288,-0.8289,-0.8289,0,-0.7851,-0.7878,-0.7889,-0.7938,-0.7962,-0.7984,-0.8027,-0.8046,-0.8069,-0.8098,-0.8131,-0.817,-0.821,-0.822,-0.8243,-0.8259,-0.8263,-0.8278,-0.8292,-0.8282,-0.8283,-0.8284,-0.8286,-0.8286,-0.8287,-0.8287,0,0,-0.7812,-0.7883,-0.7886,-0.791,-0.7962,-0.7984,-0.8009,-0.8048,-0.8064,-0.8099,-0.8121,-0.8164,-0.8179,-0.8204,-0.823,-0.8243,-0.8242,-0.8257,-0.8259,-0.8253,-0.8263,-0.8251,-0.8251,-0.8257,-0.8257,-0.8257,-0.8259,0,-0.7808,-0.7853,-0.7889,-0.7922,-0.7948,-0.7986,-0.8007,-0.8042,-0.807,-0.8097,-0.8128,-0.8159,-0.8176,-0.8191,-0.8205,-0.8239,-0.8244,-0.8239,-0.8278,-0.8279,-0.8266,-0.8252,-0.8239,-0.8239,-0.826,-0.826,-0.826,0,-0.7809,-0.7842,-0.7877,-0.7928,-0.794,-0.7959,-0.7998,-0.8024,-0.8064,-0.8084,-0.8111,-0.8139,-0.8167,-0.8179,-0.8218,-0.8214,-0.8232,-0.8251,-0.8252,-0.8257,-0.8269,-0.8256,-0.824,-0.824,-0.8262,-0.8262,-0.8262,0,-0.7777,-0.7832,-0.786,-0.7879,-0.7938,-0.795,-0.7976,-0.8016,-0.8038,-0.8073,-0.8087,-0.8125,-0.8145,-0.8173,-0.8211,-0.8216,-0.8247,-0.8261,-0.8264,-0.8263,-0.8269,-0.8268,-0.8255,-0.828,-0.828,-0.828,-0.828,0,-0.7769,-0.7789,-0.7847,-0.7864,-0.7888,-0.793,-0.7952,-0.7981,-0.8017,-0.8041,-0.8075,-0.8097,-0.8145,-0.8173,-0.8202,-0.8231,-0.824,-0.8257,-0.8264,-0.8254,-0.8252,-0.8266,-0.8267,-0.828,-0.828,-0.828,-0.828,0,-0.7738,-0.7777,-0.7811,-0.7864,-0.7878,-0.7894,-0.794,-0.7958,-0.7989,-0.8019,-0.8028,-0.8076,-0.8111,-0.8151,-0.8198,-0.8218,-0.8245,-0.8256,-0.8231,-0.8236,-0.8237,-0.8236,-0.8233,-0.8235,-0.8258,-0.8258,-0.8257,0,-0.773,-0.7746,-0.7802,-0.782,-0.7845,-0.7874,-0.7897,-0.7939,-0.7961,-0.8009,-0.8022,-0.8059,-0.8091,-0.8144,-0.8184,-0.822,-0.8233,-0.8229,-0.8239,-0.8228,-0.8233,-0.8232,-0.8234,-0.8227,-0.8226,-0.8226,-0.8225,0,-0.7712,-0.7731,-0.7762,-0.78,-0.7826,-0.7858,-0.7892,-0.7905,-0.7954,-0.7977,-0.8013,-0.8038,-0.8087,-0.8124,-0.8166,-0.8192,-0.8217,-0.8222,-0.8225,-0.8214,-0.8199,-0.8208,-0.8225,-0.8222,-0.8222,-0.8223,-0.8223,-0.8223,-0.7692,-0.7709,-0.7751,-0.7785,-0.7815,-0.7845,-0.7866,-0.7899,-0.793,-0.7973,-0.7996,-0.8032,-0.8073,-0.8132,-0.8158,-0.8187,-0.8195,-0.8199,-0.82,-0.82,-0.8197,-0.8195,-0.8194,-0.8194,-0.8195,-0.8195,-0.8195,0,-0.7676,-0.7705,-0.7736,-0.7782,-0.7809,-0.7831,-0.7869,-0.789,-0.7921,-0.7957,-0.7988,-0.803,-0.8066,-0.8109,-0.8148,-0.8162,-0.8175,-0.8171,-0.8171,-0.8177,-0.8187,-0.8181,-0.8161,-0.8161,-0.8161,-0.8161,-0.8161,-0.8161,-0.7671,-0.77,-0.7725,-0.777,-0.7799,-0.7834,-0.7854,-0.7883,-0.7913,-0.7958,-0.7988,-0.8016,-0.8055,-0.8097,-0.8131,-0.8143,-0.8156,-0.8149,-0.8164,-0.8173,-0.8176,-0.8178,-0.8173,-0.8151,-0.8151,-0.8151,-0.8151,-0.8151]}]]